Home > Weather > Waterbury > Past weeks

Flag for U.S.A. Weather for the Past 2 Weeks in Waterbury, Connecticut, U.S.A.

Now
-9 °F

Clear.


Feels Like: -26 °F
Forecast: -6 / 12 °F
Wind: 8 mph from Northwest

Location: Oxford

Current Time: Feb 14, 2016 at 4:24:53 AM

Latest Report: Feb 14, 2016 at 3:55 AM


Visibility: 10 mi

Pressure: 30.27 "Hg

Humidity: 36%

Dew point: -29 °F

Location of WaterburyLocation

Historic Weather in Waterbury — Graph

°F

Waterbury Temperature Yesterday

Maximum temperature yesterday: 18 °F (at 8:50 AM)
Minimum temperature yesterday: -4 °F (at 11:55 PM)
Average temperature yesterday: 11 °F

High & Low Weather Summary for the Past Weeks

 TemperatureHumidityPressure
High129 °F (Feb 1, 6:00 AM)100% (Feb 3, 8:50 PM)30.40 "Hg (Feb 3, 8:50 PM)
Low-9 °F (Feb 14, 2:15 AM)3% (Feb 1, 6:00 AM)29.55 "Hg (Feb 10, 12:45 PM)
Average30 °F54%29.97 "Hg
* Reported Jan 30 3:15 AM — Feb 14 3:15 AM, Waterbury, Weather by CustomWeather, © 2016

Note: Actual official high and low records may vary slightly from our data, if they occured in-between our weather recording intervals... More about our weather records

Advertising

Waterbury Weather History for the Previous 24 Hours

 ConditionsComfort  
Time TempWeatherWind HumidityBarometerVisibility
3:15 AM
Sun, Feb 14
-9 °FClear.7 mph36%30.25 "Hg10 mi
2:35 AM-9 °FClear.8 mph36%30.25 "Hg10 mi
2:15 AM-9 °FClear.17 mph36%30.24 "Hg10 mi
1:55 AM-8 °FClear.7 mph33%30.23 "Hg10 mi
1:35 AM-8 °FClear.13 mph36%30.23 "Hg10 mi
1:15 AM-8 °FClear.12 mph36%30.23 "Hg10 mi
12:55 AM-8 °FClear.8 mph36%30.22 "Hg10 mi
12:35 AM-6 °FClear.8 mph37%30.22 "Hg10 mi
12:15 AM-6 °FClear.8 mph37%30.21 "Hg10 mi
11:55 PM
Sat, Feb 13
-4 °FPassing clouds.12 mph37%30.21 "Hg10 mi
11:15 PM-2 °FMostly cloudy.17 mph34%30.19 "Hg7 mi
10:55 PM0 °FOvercast.13 mph31%30.18 "Hg10 mi
10:15 PM-2 °FPassing clouds.8 mph31%30.18 "Hg10 mi
9:55 PM-2 °FClear.6 mph31%30.17 "Hg10 mi
9:15 PM-2 °FClear.9 mph31%30.17 "Hg10 mi
7:50 PM0 °FPassing clouds.16 mph28%30.18 "Hg10 mi
6:50 PM1 °FPassing clouds.16 mph29%30.15 "Hg10 mi
5:50 PM3 °FPassing clouds.12 mph29%30.10 "Hg10 mi
4:52 PM7 °FScattered clouds.13 mph30%30.06 "Hg10 mi
3:50 PM9 °FScattered clouds.12 mph30%30.01 "Hg10 mi
2:50 PM12 °FPartly sunny.17 mph28%29.97 "Hg10 mi
1:50 PM14 °FPartly sunny.17 mph28%29.94 "Hg10 mi
12:50 PM16 °FPartly sunny.17 mph31%29.92 "Hg10 mi
11:50 AM18 °FScattered clouds.17 mph29%29.92 "Hg10 mi
10:50 AM18 °FPartly sunny.12 mph32%29.92 "Hg10 mi
9:50 AM18 °FPartly sunny.9 mph35%29.90 "Hg10 mi
8:50 AM18 °FPassing clouds.9 mph41%29.88 "Hg10 mi
7:50 AM16 °FPassing clouds.12 mph53%29.85 "Hg10 mi
6:55 AM14 °FPassing clouds.5 mph57%29.83 "Hg10 mi
5:55 AM16 °FClear.6 mph53%29.81 "Hg10 mi
5:35 AM14 °FPassing clouds.3 mph57%29.81 "Hg10 mi
5:15 AM16 °FMostly cloudy.5 mph53%29.80 "Hg10 mi
4:55 AM16 °FMostly cloudy.3 mph53%29.80 "Hg10 mi
4:35 AM16 °FMostly cloudy.No wind53%29.80 "Hg10 mi
4:15 AM16 °FPassing clouds.No wind53%29.79 "Hg10 mi
Weather by CustomWeather, © 2016

See weather overviewHow to use our weather pages